Regional Weather Roundup
Issued by NWS

Home | Current Version | Previous Version | Text Only | Print | Product List | Glossary On
Versions: 1 2 3 4 5 6 7 8 9 10 11 12 13 14 15 16 17 18 19 20 21 22 23 24 25 26 27 28 29 30 31 32 33 34 35 36 37 38 39 40 41 42 43 44 45 46 47 48 49 50
000
ASUS43 KMKX 290021
RWRWI

WISCONSIN REGIONAL WEATHER ROUNDUP
NATIONAL WEATHER SERVICE MILWAUKEE/SULLIVAN WI
700 PM CDT THU MAY 28 2015

NOTE: "FAIR" INDICATES FEW OR NO CLOUDS BELOW 12,000 FEET WITH NO
SIGNIFICANT WEATHER AND/OR OBSTRUCTIONS TO VISIBILITY.

WIZ001-002-006>008-014>016-023>028-290100-
NORTHWEST WISCONSIN

CITY           SKY/WX    TMP DP  RH WIND       PRES   REMARKS
SUPERIOR ARPT  CLOUDY    41  40  97 NE9       29.98F FOG
6HR MIN TEMP:  41; 6HR MAX TEMP:  46;

ASHLAND        SUNNY     55  48  77 N8        29.96F
6HR MIN TEMP:  55; 6HR MAX TEMP:  66;

HAYWARD        SUNNY     79  52  38 S18       29.95F
6HR MIN TEMP:  79; 6HR MAX TEMP:  85;

SIREN          MOSUNNY   80  50  35 S17G23    29.93S
6HR MIN TEMP:  80; 6HR MAX TEMP:  85;

CUMBERLAND     MOSUNNY   75  52  43 S20       29.96F
RICE LAKE      MOSUNNY   80  51  36 S14G23    29.97F
6HR MIN TEMP:  79; 6HR MAX TEMP:  84;

CHETEK         MOSUNNY   76  58  53 S7        29.97F
6HR MIN TEMP:  76; 6HR MAX TEMP:  82;

LADYSMITH      MOSUNNY   77  55  47 S13       30.00F
6HR MIN TEMP:  76; 6HR MAX TEMP:  82;

EAU CLAIRE     MOSUNNY   79  56  45 S15       29.97F HX  80
6HR MIN TEMP:  79; 6HR MAX TEMP:  85;

MENOMONIE      MOSUNNY   78  55  44 S14       29.97F
6HR MIN TEMP:  78; 6HR MAX TEMP:  83;

NEW RICHMOND   MOSUNNY   76  52  44 S15G21    29.94F
6HR MIN TEMP:  75; 6HR MAX TEMP:  82;

OSCEOLA        MOSUNNY   79  52  38 S16       29.95F
6HR MIN TEMP:  79; 6HR MAX TEMP:  84;

$$

WIZ003>005-009-010-017-018-290100-
NORTH CENTRAL WISCONSIN

CITY           SKY/WX    TMP DP  RH WIND       PRES   REMARKS
MANITOWISH WTR MOSUNNY   77  52  42 S13G22    30.00S
6HR MIN TEMP:  74; 6HR MAX TEMP:  81;

ARBOR VITAE    PTSUNNY   78  54  43 S16G22    30.01F
6HR MIN TEMP:  77; 6HR MAX TEMP:  82;

WOODRUFF       PTSUNNY   78  54  43 S16G22    30.01F
6HR MIN TEMP:  77; 6HR MAX TEMP:  82;

RHINELANDER    SUNNY     77  52  41 SW12      30.04F
6HR MIN TEMP:  73; 6HR MAX TEMP:  82; 6HR PCP: TRACE;

EAGLE RIVER    MOSUNNY   77  49  37 S10G16    30.02F
6HR MIN TEMP:  77; 6HR MAX TEMP:  82;

LAND O LAKES   MOSUNNY   79  47  33 S9G16     30.02F
6HR MIN TEMP:  77; 6HR MAX TEMP:  83;

PHILLIPS       MOSUNNY   77  55  45 SW10      29.99F
6HR MIN TEMP:  77; 6HR MAX TEMP:  81;

TOMAHAWK       MOSUNNY   76  54  46 S3        30.04S
6HR MIN TEMP:  71; 6HR MAX TEMP:  81;

MEDFORD        MOSUNNY   74  56  53 S12       30.03F
6HR MIN TEMP:  74; 6HR MAX TEMP:  80;

MERRILL        MOSUNNY   77  57  49 SW13      30.05S
$$

WIZ029-030-035-036-043>047-290100-
CENTRAL WISCONSIN

CITY           SKY/WX    TMP DP  RH WIND       PRES   REMARKS
WAUSAU         PTSUNNY   77  55  46 SW13      30.03F
6HR MIN TEMP:  77; 6HR MAX TEMP:  83;

MOSINEE        MOSUNNY   77  55  47 S12       30.06F
MARSHFIELD     MOSUNNY   77  53  43 S13       30.03F
6HR MIN TEMP:  77; 6HR MAX TEMP:  83;

STEVENS POINT  MOSUNNY   77  54  44 S12       30.06S
6HR MIN TEMP:  77; 6HR MAX TEMP:  83;

WAUPACA        MOSUNNY   80  55  42 S7        30.06S HX  80
6HR MIN TEMP:  80; 6HR MAX TEMP:  86;

WAUTOMA        MOSUNNY   81  53  37 S12G17    30.06F HX  80
6HR MIN TEMP:  81; 6HR MAX TEMP:  85;

WISC RAPIDS    MOSUNNY   79  51  37 SW12      30.06S
6HR MIN TEMP:  79; 6HR MAX TEMP:  85;

CAMP DOUGLAS   MOSUNNY   77  54  44 SE9       30.05S
$$

WIZ011>013-019>022-031-037>040-048>050-290100-
NORTHEAST WISCONSIN

CITY           SKY/WX    TMP DP  RH WIND       PRES   REMARKS
ANTIGO         CLOUDY    73  57  57 S9        30.07S
SHAWANO        MOSUNNY   80  57  44 SW3       30.06S HX  80
6HR MIN TEMP:  80; 6HR MAX TEMP:  84;

OCONTO         MOSUNNY   75  62  65 S9        30.06S
6HR MIN TEMP:  74; 6HR MAX TEMP:  81;

STURGEON BAY   MOSUNNY   70  55  60 S14       30.11F
6HR MIN TEMP:  70; 6HR MAX TEMP:  73;

GREEN BAY      MOSUNNY   78  61  55 S17       30.07F HX  80
6HR MIN TEMP:  78; 6HR MAX TEMP:  83;

MANITOWOC      MOSUNNY   69  55  60 S15       30.11F
6HR MIN TEMP:  67; 6HR MAX TEMP:  74;

APPLETON       MOSUNNY   79  54  41 S14       30.09S
CLINTONVILLE   MOSUNNY   79  54  41 S8        30.06S
OSHKOSH        MOSUNNY   77  57  50 S9        30.08S
6HR MIN TEMP:  77; 6HR MAX TEMP:  82;

$$

WIZ032>034-041-042-053>061-290100-
SOUTHWEST WISCONSIN

CITY           SKY/WX    TMP DP  RH WIND       PRES   REMARKS
LA CROSSE      MOSUNNY   81  54  39 S14G23    30.01S HX  81
6HR MIN TEMP:  80; 6HR MAX TEMP:  85;

SPARTA         MOSUNNY   78  48  35 S10       30.05R
6HR MIN TEMP:  78; 6HR MAX TEMP:  83;

VIROQUA        MOSUNNY   77  53  43 S14       30.05F
6HR MIN TEMP:  77; 6HR MAX TEMP:  81;

BOSCOBEL       MOSUNNY   80  52  37 S6        30.04F HX  80
6HR MIN TEMP:  80; 6HR MAX TEMP:  84;

PRAIRIE DU CHI MOSUNNY   79  47  32 SE7       30.03S
6HR MIN TEMP:  79; 6HR MAX TEMP:  82;

PLATTEVILLE    MOSUNNY   79  53  40 S10       30.07S
6HR MIN TEMP:  78; 6HR MAX TEMP:  81;

$$

WIZ056-057-062-063-064-067-068-290100-
SOUTH CENTRAL WISCONSIN

CITY           SKY/WX    TMP DP  RH WIND       PRES   REMARKS
REEDSBURG      SUNNY     78  55  45 S6        30.06S
6HR MIN TEMP:  77; 6HR MAX TEMP:  81;

BARABOO/DELLS  SUNNY     76  52  42 S9        30.07S
6HR MIN TEMP:  75; 6HR MAX TEMP:  80;

LONE ROCK      MOSUNNY   78  54  43 S8        30.06S
6HR MIN TEMP:  77; 6HR MAX TEMP:  82;

MINERAL POINT  MOSUNNY   77  52  41 S10       30.07F
MADISON        PTSUNNY   80  51  36 S14       30.07F HX  80
6HR MIN TEMP:  80; 6HR MAX TEMP:  82;

MIDDLETON      MOSUNNY   80  46  29 S12       30.08S
6HR MIN TEMP:  80; 6HR MAX TEMP:  84;

WATERTOWN      MOSUNNY  N/A N/A N/A SE7       30.09S
MONROE         SUNNY     77  55  47 SE9       30.08S
JANESVILLE     MOSUNNY   81  52  36 SE10      30.08F HX  80
$$

WIZ051-052-058>065-066-070>072-290100-
SOUTHEAST WISCONSIN

CITY           SKY/WX    TMP DP  RH WIND       PRES   REMARKS
MILWAUKEE      PTSUNNY   72  55  55 SE10      30.12S
6HR MIN TEMP:  72; 6HR MAX TEMP:  78;

WAUKESHA       SUNNY     75  48  38 SE12      30.12F
MILWAUKEE/TIMM SUNNY     79  45  29 SE9       30.12F
RACINE         SUNNY     71  55  56 SE8       30.14F
6HR MIN TEMP:  71; 6HR MAX TEMP:  76;

BURLINGTON     MOSUNNY   75  54  46 SE9       30.11S
6HR MIN TEMP:  75; 6HR MAX TEMP:  80;

KENOSHA        SUNNY     73  56  54 E10       30.12F
6HR MIN TEMP:  73; 6HR MAX TEMP:  79;

FOND DU LAC    MOSUNNY   79  56  45 S9        30.08F HX  80
6HR MIN TEMP:  79; 6HR MAX TEMP:  82;

SHEBOYGAN      MOSUNNY   72  55  55 S7        30.11F
6HR MIN TEMP:  72; 6HR MAX TEMP:  81;

WEST BEND      PTSUNNY   77  50  38 SE6       30.11S
JUNEAU         PTSUNNY   78  56  47 S8        30.10S
6HR MIN TEMP:  77; 6HR MAX TEMP:  80;

$$

LSZ147-162-290100-
LAKE SUPERIOR

STATION/POSITION TIME  TEMP    WIND        PRES    WAVE
                       AIR SEA DIR/SP/G            HT/PER
                 (UTC) (F)     (DEG/KT/KT) (MB)    (FT/S)
W MID LAKE BUOY  2350   38 37   70/ 12/ 16   N/A     3/ 5
DEVILS ISLAND    0000   39      50/ 10/ 11   N/A
PORT WING        2340   40      30/ 14/ 17   N/A
SAXON HARBOR     2200   46        CALM       N/A
$$

LMZ867-665-643>646-290100-
LAKE MICHIGAN

STATION/POSITION TIME  TEMP    WIND        PRES    WAVE
                       AIR SEA DIR/SP/G            HT/PER
                 (UTC) (F)     (DEG/KT/KT) (MB)    (FT/S)
CHAMBERS ISLAND  2300   72     140/  8/ 15   N/A
N MID LAKE BUOY  2350   42 37  180/  8/ 10   N/A     0


USA.gov is the U.S. government's official web portal to all federal, state and local government web resources and services.